PBD456 UWLL-UUEE

Flight info

Callsign PBD456
Flight time 1h 26m
Altitude 36000
Route ARPUD1L ARPUD T750 OKSUD T787 OTKOL T784 LARNO T291 URIDU L158 DIMGI DIMGI3E
Aircraft B738/M-SDE2E3FGHIRWXY/LB1

Departure

Time 2026-04-30 18:17
Airport Ulyanovsk Baratayevka Airport (UWLL)

Arrival

Time 2026-04-30 19:44
Airport Sheremetyevo International Airport (UUEE)
Time Latitude Longitude Altitude Speed Heading
2026-04-30 17:51 54.28591 48.23168 458 ft 0 kts 302°
2026-04-30 18:04 54.28576 48.23095 458 ft 6 kts 156°
2026-04-30 18:05 54.28407 48.23577 458 ft 11 kts 122°
2026-04-30 18:06 54.28178 48.24176 458 ft 18 kts 145°
2026-04-30 18:07 54.27707 48.23739 458 ft 19 kts 212°
2026-04-30 18:08 54.27366 48.23375 458 ft 18 kts 212°
2026-04-30 18:09 54.26843 48.22810 458 ft 22 kts 212°
2026-04-30 18:10 54.26474 48.22411 458 ft 13 kts 212°
2026-04-30 18:11 54.26374 48.22184 458 ft 0 kts 271°
2026-04-30 18:13 54.26374 48.22181 458 ft 0 kts 271°
2026-04-30 18:15 54.26378 48.21967 458 ft 9 kts 277°
2026-04-30 18:16 54.26446 48.21945 458 ft 5 kts 32°
2026-04-30 18:16 54.27161 48.22721 459 ft 136 kts 32°
2026-04-30 18:17 54.28105 48.23722 739 ft 175 kts 30°
2026-04-30 18:17 54.29247 48.24877 1322 ft 204 kts 31°
2026-04-30 18:17 54.32062 48.27905 1972 ft 277 kts 33°
2026-04-30 18:18 54.33820 48.29306 2829 ft 283 kts 12°
2026-04-30 18:18 54.35770 48.29299 3051 ft 284 kts 344°
2026-04-30 18:18 54.37409 48.27592 3007 ft 271 kts 311°
2026-04-30 18:18 54.38171 48.24817 2995 ft 256 kts 280°
2026-04-30 18:19 54.38361 48.21750 3006 ft 258 kts 279°
2026-04-30 18:19 54.38800 48.18777 2995 ft 258 kts 290°
2026-04-30 18:19 54.39436 48.15921 2992 ft 258 kts 293°
2026-04-30 18:19 54.40122 48.13054 2992 ft 258 kts 293°
2026-04-30 18:20 54.40824 48.10189 3399 ft 274 kts 294°
2026-04-30 18:20 54.41454 48.07645 4495 ft 266 kts 294°
2026-04-30 18:20 54.42171 48.04761 5384 ft 271 kts 294°
2026-04-30 18:20 54.42905 48.01815 6420 ft 270 kts 294°
2026-04-30 18:21 54.43644 47.98852 7336 ft 273 kts 294°
2026-04-30 18:21 54.44382 47.95889 8252 ft 275 kts 294°
2026-04-30 18:21 54.45130 47.92887 9131 ft 278 kts 294°
2026-04-30 18:21 54.45889 47.89837 9995 ft 281 kts 294°
2026-04-30 18:22 54.46674 47.86701 10655 ft 292 kts 295°
2026-04-30 18:22 54.48561 47.79907 11113 ft 339 kts 296°
2026-04-30 18:22 54.49594 47.76200 11097 ft 341 kts 296°
2026-04-30 18:23 54.50704 47.72615 10991 ft 346 kts 300°
2026-04-30 18:23 54.51802 47.68849 11145 ft 354 kts 295°
2026-04-30 18:23 54.52800 47.64994 11470 ft 360 kts 295°
2026-04-30 18:23 54.53824 47.61157 12741 ft 348 kts 296°
2026-04-30 18:24 54.55891 47.53558 14290 ft 353 kts 296°
2026-04-30 18:24 54.56939 47.49734 14973 ft 358 kts 296°
2026-04-30 18:24 54.58014 47.45813 15694 ft 360 kts 296°
2026-04-30 18:25 54.59083 47.41916 16355 ft 364 kts 296°
2026-04-30 18:25 54.61256 47.33980 17631 ft 371 kts 295°
2026-04-30 18:25 54.62352 47.29972 18229 ft 374 kts 295°
2026-04-30 18:26 54.64578 47.21806 19433 ft 380 kts 295°
2026-04-30 18:26 54.65699 47.17681 19984 ft 383 kts 295°
2026-04-30 18:26 54.66843 47.13466 20540 ft 386 kts 295°
2026-04-30 18:27 54.69133 47.05009 21577 ft 393 kts 295°
2026-04-30 18:27 54.70290 47.00722 22109 ft 395 kts 296°
2026-04-30 18:28 54.72604 46.92121 23146 ft 398 kts 296°
2026-04-30 18:28 54.73760 46.87811 23656 ft 399 kts 296°
2026-04-30 18:28 54.76108 46.79023 24583 ft 403 kts 297°
2026-04-30 18:29 54.77279 46.74631 24975 ft 406 kts 297°
2026-04-30 18:29 54.80953 46.61269 26127 ft 412 kts 301°
2026-04-30 18:30 54.83590 46.54420 26726 ft 414 kts 309°
2026-04-30 18:30 54.87687 46.45129 27527 ft 419 kts 310°
2026-04-30 18:31 54.89488 46.41096 27835 ft 422 kts 310°
2026-04-30 18:31 54.93115 46.32998 28427 ft 427 kts 310°
2026-04-30 18:32 54.96776 46.24825 28976 ft 432 kts 310°
2026-04-30 18:32 54.98617 46.20715 29220 ft 435 kts 310°
2026-04-30 18:32 55.02349 46.12374 29699 ft 441 kts 311°
2026-04-30 18:33 55.04252 46.08116 29927 ft 443 kts 311°
2026-04-30 18:33 55.08017 45.99672 30530 ft 444 kts 311°
2026-04-30 18:33 55.09919 45.95398 30853 ft 444 kts 311°
2026-04-30 18:34 55.11789 45.91186 31190 ft 443 kts 311°
2026-04-30 18:34 55.15566 45.82659 31838 ft 443 kts 311°
2026-04-30 18:34 55.17429 45.78443 32162 ft 442 kts 311°
2026-04-30 18:35 55.19295 45.74214 32506 ft 441 kts 311°
2026-04-30 18:35 55.21176 45.69943 32811 ft 441 kts 311°
2026-04-30 18:35 55.23035 45.65714 33136 ft 439 kts 311°
2026-04-30 18:36 55.26750 45.57243 33729 ft 438 kts 311°
2026-04-30 18:36 55.28603 45.53008 34051 ft 437 kts 311°
2026-04-30 18:36 55.32285 45.44572 34594 ft 436 kts 311°
2026-04-30 18:37 55.34104 45.40395 34883 ft 435 kts 311°
2026-04-30 18:37 55.35050 45.38220 35014 ft 435 kts 311°
2026-04-30 18:37 55.36842 45.34093 35287 ft 434 kts 310°
2026-04-30 18:37 55.38667 45.29884 35504 ft 435 kts 310°
2026-04-30 18:38 55.40512 45.25615 35790 ft 434 kts 310°
2026-04-30 18:38 55.42310 45.21450 36016 ft 433 kts 310°
2026-04-30 18:38 55.44141 45.17200 36260 ft 433 kts 310°
2026-04-30 18:38 55.45957 45.12980 36477 ft 433 kts 310°
2026-04-30 18:39 55.47767 45.08767 36707 ft 432 kts 310°
2026-04-30 18:39 55.49556 45.04598 36933 ft 431 kts 310°
2026-04-30 18:39 55.51355 45.00392 37202 ft 430 kts 310°
2026-04-30 18:39 55.53148 44.96191 37397 ft 430 kts 310°
2026-04-30 18:40 55.54813 44.91841 37646 ft 431 kts 304°
2026-04-30 18:40 55.56156 44.87095 37813 ft 436 kts 294°
2026-04-30 18:40 55.57037 44.81910 38012 ft 439 kts 289°
2026-04-30 18:40 55.57759 44.76731 38156 ft 440 kts 288°
2026-04-30 18:41 55.58507 44.71489 38156 ft 440 kts 289°
2026-04-30 18:41 55.60009 44.61044 38153 ft 435 kts 289°
2026-04-30 18:42 55.61464 44.50749 38155 ft 432 kts 289°
2026-04-30 18:42 55.63631 44.35269 38156 ft 435 kts 289°
2026-04-30 18:45 55.71401 43.78130 38155 ft 435 kts 288°
2026-04-30 18:46 55.72783 43.67707 38154 ft 434 kts 288°
2026-04-30 18:46 55.74162 43.57260 38155 ft 434 kts 288°
2026-04-30 18:47 55.75515 43.46927 38155 ft 433 kts 288°
2026-04-30 18:47 55.76878 43.36474 38155 ft 434 kts 288°
2026-04-30 18:48 55.78225 43.26032 38156 ft 435 kts 287°
2026-04-30 18:48 55.79513 43.15581 38153 ft 436 kts 283°
2026-04-30 18:49 55.80179 43.04822 38155 ft 435 kts 279°
2026-04-30 18:49 55.80758 42.94197 38154 ft 431 kts 280°
2026-04-30 18:50 55.81345 42.83631 38156 ft 432 kts 280°
2026-04-30 18:50 55.81934 42.72998 38155 ft 433 kts 280°
2026-04-30 18:51 55.82516 42.62353 38154 ft 433 kts 280°
2026-04-30 18:51 55.83087 42.51703 38154 ft 432 kts 280°
2026-04-30 18:52 55.83648 42.41079 38155 ft 432 kts 280°
2026-04-30 18:52 55.84198 42.30477 38155 ft 433 kts 279°
2026-04-30 18:53 55.84741 42.19799 38155 ft 434 kts 279°
2026-04-30 18:53 55.85273 42.09121 38154 ft 433 kts 279°
2026-04-30 18:54 55.85792 41.98503 38156 ft 433 kts 279°
2026-04-30 18:54 55.86304 41.87874 38156 ft 434 kts 279°
2026-04-30 18:55 55.86703 41.77161 38153 ft 437 kts 274°
2026-04-30 18:55 55.86246 41.60874 38167 ft 438 kts 272°
2026-04-30 18:56 55.85755 41.44740 38183 ft 438 kts 272°
2026-04-30 18:57 55.85238 41.28502 38182 ft 439 kts 271°
2026-04-30 18:57 55.84881 41.17720 38181 ft 437 kts 271°
2026-04-30 18:58 55.84327 41.01517 38182 ft 439 kts 271°
2026-04-30 18:59 55.83752 40.85317 38181 ft 438 kts 270°
2026-04-30 19:00 55.83157 40.69228 37377 ft 432 kts 270°
2026-04-30 19:00 55.83024 40.65655 37011 ft 430 kts 270°
2026-04-30 19:00 55.82614 40.55175 35817 ft 425 kts 270°
2026-04-30 19:01 55.82191 40.44760 34425 ft 425 kts 270°
2026-04-30 19:01 55.81978 40.39548 33708 ft 425 kts 270°
2026-04-30 19:02 55.81543 40.29116 32379 ft 421 kts 269°
2026-04-30 19:02 55.81102 40.18838 31235 ft 413 kts 269°
2026-04-30 19:03 55.80665 40.08792 30080 ft 406 kts 269°
2026-04-30 19:03 55.80233 39.98916 28952 ft 399 kts 269°
2026-04-30 19:04 55.79798 39.89220 27842 ft 392 kts 269°
2026-04-30 19:04 55.79352 39.79660 26752 ft 385 kts 268°
2026-04-30 19:05 55.78738 39.70394 26197 ft 371 kts 267°
2026-04-30 19:05 55.78124 39.61168 26209 ft 382 kts 267°
2026-04-30 19:06 55.77500 39.52029 25533 ft 370 kts 267°
2026-04-30 19:06 55.77190 39.47429 25034 ft 374 kts 267°
2026-04-30 19:06 55.76567 39.38379 24206 ft 362 kts 267°
2026-04-30 19:07 55.76100 39.31684 24220 ft 367 kts 266°
2026-04-30 19:07 55.75785 39.27160 24211 ft 371 kts 266°
2026-04-30 19:08 55.75144 39.18114 24044 ft 370 kts 266°
2026-04-30 19:08 55.74498 39.09085 23540 ft 365 kts 266°
2026-04-30 19:08 55.74177 39.04643 23292 ft 363 kts 266°
2026-04-30 19:09 55.73369 38.95896 22786 ft 362 kts 254°
2026-04-30 19:09 55.72226 38.91994 22161 ft 363 kts 237°
2026-04-30 19:09 55.70580 38.88602 21485 ft 359 kts 231°
2026-04-30 19:10 55.67289 38.82135 20043 ft 351 kts 232°
2026-04-30 19:10 55.64083 38.75777 18657 ft 343 kts 232°
2026-04-30 19:11 55.62529 38.72689 17978 ft 339 kts 232°
2026-04-30 19:11 55.59443 38.66542 16613 ft 331 kts 232°
2026-04-30 19:11 55.57939 38.63494 15930 ft 326 kts 236°
2026-04-30 19:12 55.56866 38.60052 15213 ft 318 kts 256°
2026-04-30 19:12 55.56628 38.56277 14551 ft 309 kts 277°
2026-04-30 19:12 55.56953 38.52597 13915 ft 304 kts 282°
2026-04-30 19:13 55.57691 38.45308 12543 ft 299 kts 282°
2026-04-30 19:13 55.58419 38.38139 11414 ft 294 kts 282°
2026-04-30 19:13 55.58776 38.34634 10708 ft 292 kts 281°
2026-04-30 19:14 55.59133 38.31146 10208 ft 283 kts 281°
2026-04-30 19:14 55.59477 38.27784 9763 ft 274 kts 281°
2026-04-30 19:14 55.59812 38.24509 9206 ft 271 kts 281°
2026-04-30 19:14 55.60145 38.21265 8647 ft 268 kts 281°
2026-04-30 19:15 55.60480 38.18017 8115 ft 267 kts 281°
2026-04-30 19:15 55.61134 38.11751 7988 ft 254 kts 284°
2026-04-30 19:15 55.61872 38.08975 7984 ft 253 kts 313°
2026-04-30 19:16 55.63366 38.07411 7994 ft 255 kts 346°
2026-04-30 19:16 55.65130 38.07064 8008 ft 257 kts 352°
2026-04-30 19:16 55.68429 38.05024 7301 ft 257 kts 323°
2026-04-30 19:17 55.69834 38.03064 6842 ft 256 kts 321°
2026-04-30 19:17 55.72636 37.99141 5642 ft 256 kts 321°
2026-04-30 19:17 55.74029 37.97190 5071 ft 255 kts 321°
2026-04-30 19:18 55.76305 37.94000 4323 ft 246 kts 321°
2026-04-30 19:18 55.78149 37.91730 3878 ft 240 kts 335°
2026-04-30 19:18 55.79710 37.90672 3640 ft 243 kts 339°
2026-04-30 19:19 55.81278 37.89568 3389 ft 242 kts 336°
2026-04-30 19:19 55.82835 37.88401 3137 ft 241 kts 336°
2026-04-30 19:19 55.85889 37.86058 2637 ft 239 kts 335°
2026-04-30 19:20 55.87392 37.84898 2492 ft 235 kts 335°
2026-04-30 19:20 55.88773 37.83824 2493 ft 236 kts 335°
2026-04-30 19:20 55.91434 37.81753 2488 ft 234 kts 335°
2026-04-30 19:21 55.92856 37.80641 2485 ft 224 kts 335°
2026-04-30 19:21 55.95484 37.78628 2477 ft 189 kts 334°
2026-04-30 19:22 55.97869 37.76747 2498 ft 190 kts 334°
2026-04-30 19:22 56.01215 37.73826 2488 ft 165 kts 309°
2026-04-30 19:23 56.01086 37.68169 2498 ft 161 kts 257°
2026-04-30 19:24 56.00507 37.64287 2500 ft 162 kts 257°
2026-04-30 19:24 56.00236 37.62461 2511 ft 137 kts 258°
2026-04-30 19:24 55.99760 37.59210 2375 ft 136 kts 258°
2026-04-30 19:25 55.99048 37.54370 1787 ft 136 kts 256°
2026-04-30 19:26 55.98572 37.51162 1388 ft 131 kts 253°
2026-04-30 19:26 55.98056 37.48002 1221 ft 145 kts 252°
2026-04-30 19:26 55.97694 37.46115 1523 ft 180 kts 256°
2026-04-30 19:27 55.97063 37.41064 1744 ft 199 kts 260°
2026-04-30 19:27 55.95687 37.36935 1934 ft 219 kts 236°
2026-04-30 19:28 55.94859 37.34518 2144 ft 224 kts 237°
2026-04-30 19:28 55.92138 37.31690 3056 ft 245 kts 197°
2026-04-30 19:29 55.89938 37.27928 4948 ft 231 kts 261°
2026-04-30 19:29 55.90026 37.25116 5018 ft 227 kts 289°
2026-04-30 19:30 55.93092 37.19490 5005 ft 223 kts 342°
2026-04-30 19:30 55.95198 37.18150 4995 ft 224 kts 335°
2026-04-30 19:31 55.98055 37.15948 4992 ft 224 kts 334°
2026-04-30 19:31 55.99642 37.15264 4999 ft 253 kts 360°
2026-04-30 19:31 56.02522 37.18686 5001 ft 265 kts 57°
2026-04-30 19:32 56.03505 37.21501 4992 ft 269 kts 52°
2026-04-30 19:32 56.04629 37.24201 4985 ft 269 kts 49°
2026-04-30 19:32 56.05759 37.26823 4972 ft 263 kts 51°
2026-04-30 19:32 56.06871 37.29399 4712 ft 255 kts 50°
2026-04-30 19:33 56.07656 37.31180 4567 ft 245 kts 49°
2026-04-30 19:33 56.08675 37.33497 4442 ft 231 kts 50°
2026-04-30 19:33 56.09644 37.35721 4249 ft 225 kts 49°
2026-04-30 19:33 56.10299 37.37199 4088 ft 224 kts 49°
2026-04-30 19:34 56.11566 37.40062 3990 ft 221 kts 49°
2026-04-30 19:34 56.12520 37.42247 4003 ft 224 kts 47°
2026-04-30 19:34 56.14455 37.46648 3995 ft 223 kts 49°
2026-04-30 19:35 56.15400 37.48801 3986 ft 213 kts 49°
2026-04-30 19:35 56.16139 37.50950 3978 ft 201 kts 69°
2026-04-30 19:35 56.16120 37.53457 3996 ft 208 kts 111°
2026-04-30 19:35 56.15428 37.55728 4014 ft 208 kts 120°
2026-04-30 19:36 56.14770 37.58044 3988 ft 206 kts 114°
2026-04-30 19:36 56.14129 37.60327 3991 ft 205 kts 116°
2026-04-30 19:36 56.12872 37.64950 3854 ft 204 kts 118°
2026-04-30 19:37 56.12259 37.67151 3714 ft 190 kts 116°
2026-04-30 19:37 56.11659 37.69240 3287 ft 194 kts 117°
2026-04-30 19:37 56.11076 37.71428 2975 ft 189 kts 118°
2026-04-30 19:37 56.10497 37.73555 3002 ft 194 kts 118°
2026-04-30 19:38 56.09689 37.75472 2967 ft 193 kts 150°
2026-04-30 19:38 56.08445 37.75958 3000 ft 183 kts 193°
2026-04-30 19:38 56.07287 37.75223 2973 ft 175 kts 204°
2026-04-30 19:38 56.06129 37.74673 2733 ft 167 kts 202°
2026-04-30 19:39 56.05270 37.73444 2421 ft 159 kts 244°
2026-04-30 19:39 56.04692 37.71690 2526 ft 165 kts 233°
2026-04-30 19:39 56.03871 37.70232 2490 ft 163 kts 227°
2026-04-30 19:39 56.03074 37.68788 2492 ft 163 kts 227°
2026-04-30 19:40 56.02276 37.67355 2493 ft 165 kts 226°
2026-04-30 19:40 56.01471 37.65918 2485 ft 163 kts 228°
2026-04-30 19:40 56.00808 37.64300 2507 ft 155 kts 248°
2026-04-30 19:40 56.00452 37.62563 2509 ft 143 kts 252°
2026-04-30 19:41 56.00125 37.60931 2471 ft 135 kts 252°
2026-04-30 19:41 55.99813 37.59328 2343 ft 133 kts 256°
2026-04-30 19:41 55.99557 37.57696 2182 ft 137 kts 256°
2026-04-30 19:41 55.99301 37.56012 1990 ft 137 kts 256°
2026-04-30 19:42 55.99066 37.54402 1803 ft 136 kts 260°
2026-04-30 19:42 55.98814 37.52722 1627 ft 138 kts 258°
2026-04-30 19:42 55.98546 37.51069 1432 ft 141 kts 257°
2026-04-30 19:42 55.98307 37.49334 1212 ft 143 kts 260°
2026-04-30 19:43 55.98065 37.47611 1057 ft 139 kts 255°
2026-04-30 19:43 55.97800 37.45976 850 ft 136 kts 258°
2026-04-30 19:43 55.97562 37.44338 690 ft 135 kts 258°
2026-04-30 19:44 55.97265 37.42297 638 ft 36 kts 258°
2026-04-30 19:44 55.97203 37.41961 638 ft 23 kts 258°
2026-04-30 19:44 55.97176 37.41692 638 ft 21 kts 259°
2026-04-30 19:44 55.97154 37.41437 638 ft 17 kts 279°
2026-04-30 19:45 55.97200 37.41330 638 ft 9 kts 342°
2026-04-30 19:45 55.97268 37.41297 638 ft 9 kts 346°
2026-04-30 19:45 55.97334 37.41265 638 ft 10 kts 345°
2026-04-30 19:45 55.97401 37.41231 638 ft 10 kts 346°
2026-04-30 19:46 55.97471 37.41199 638 ft 10 kts 345°
2026-04-30 19:46 55.97534 37.41209 638 ft 9 kts 49°
2026-04-30 19:46 55.97556 37.41333 638 ft 11 kts 75°
2026-04-30 19:46 55.97578 37.41473 638 ft 12 kts 75°
2026-04-30 19:47 55.97599 37.41619 638 ft 11 kts 76°
2026-04-30 19:47 55.97611 37.41702 638 ft 9 kts 76°
2026-04-30 19:47 55.97630 37.41827 638 ft 7 kts 75°
2026-04-30 19:47 55.97642 37.41910 638 ft 6 kts 75°
2026-04-30 19:48 55.97655 37.41991 638 ft 7 kts 74°
2026-04-30 19:48 55.97676 37.42094 638 ft 9 kts 54°
2026-04-30 19:48 55.97737 37.42113 638 ft 8 kts 347°
2026-04-30 19:48 55.97798 37.42085 638 ft 9 kts 345°
2026-04-30 19:49 55.97865 37.42053 638 ft 8 kts 346°
2026-04-30 19:49 55.97944 37.42016 638 ft 4 kts 346°
2026-04-30 19:49 55.97970 37.42004 638 ft 3 kts 346°
2026-04-30 19:50 55.97995 37.41989 638 ft 4 kts 330°
2026-04-30 19:50 55.98006 37.41952 638 ft 3 kts 269°
2026-04-30 19:50 55.98003 37.41913 638 ft 3 kts 262°
2026-04-30 19:50 55.97999 37.41879 638 ft 1 kts 257°
2026-04-30 19:51 55.97997 37.41864 638 ft 0 kts 256°
2026-04-30 19:51 55.97996 37.41859 638 ft 0 kts 256°